Date String (YYYY-MM-DD hh:mm:ss) UTC,Instrument flags,Ambient pressure (hPa),Sample flow (lpm),Bypass flow (lpm),Sample temperature (°C),Ambient temperature (°C),ASC tube jacket temperature (°C),LED temperature (°C),Box temperature (°C),Sample RH (%),Span deviation,Mass concentration (μg/m³),Mass concentration (μg/m³),Mass concentration (μg/m³)
DateTimeUTC,F1_M11,P_M11,Q1_M11,Q2_M11,T1_M11,T2_M11,T3_M11,T4_M11,T5_M11,U1_M11,ZSPAN_M11,X2_M11,X0_M11,X1_M11
2023-01-05 15:00:00,,0826.7,5.00,0.00,21.4,20.0,00.0,30.5,22.9,08.6,0000.7,0012.33,0017.51,0011.92
2023-01-05 15:01:00,,0826.7,4.99,0.00,21.6,21.4,00.0,30.5,23.3,08.6,0000.7,0011.85,0017.18,0011.46
2023-01-05 15:02:00,,0826.7,5.00,0.00,21.7,22.3,00.0,30.5,23.6,08.5,0000.6,0011.40,0016.89,0011.04
2023-01-05 15:03:00,,0826.7,4.97,0.00,21.8,21.9,00.0,30.6,23.6,08.5,0001.4,0011.08,0016.73,0010.69
2023-01-05 15:04:00,,0826.6,4.99,0.00,21.8,21.5,00.0,30.6,23.5,08.4,0002.1,0010.73,0016.45,0010.33
2023-01-05 15:05:00,,0826.7,5.02,0.00,21.8,21.2,00.0,30.6,23.5,08.4,0001.8,0010.33,0015.93,0009.95
2023-01-05 15:06:00,,0826.6,5.01,0.00,21.8,20.9,00.0,30.6,23.5,08.5,0002.0,0010.04,0015.10,0009.66
2023-01-05 15:07:00,,0826.7,5.00,0.00,21.8,20.7,00.0,30.6,23.4,08.5,0001.7,0009.71,0014.49,0009.34
2023-01-05 15:08:00,,0826.7,4.97,0.00,21.8,20.5,00.0,30.6,23.4,08.4,0001.6,0009.31,0014.01,0008.94
2023-01-05 15:09:00,,0826.7,4.99,0.00,21.7,20.2,00.0,30.6,23.3,08.4,0002.0,0009.05,0013.76,0008.68
2023-01-05 15:10:00,,0826.6,5.06,0.00,21.7,19.9,00.0,30.6,23.1,08.4,0002.0,0008.98,0013.67,0008.63
2023-01-05 15:11:00,,0826.6,4.97,0.00,21.6,19.7,00.0,30.6,23.0,08.4,0001.5,0009.02,0013.75,0008.66
2023-01-05 15:12:00,,0826.6,5.01,0.00,21.5,19.4,00.0,30.6,22.9,08.4,0001.2,0009.01,0013.65,0008.63
2023-01-05 15:13:00,,0826.5,5.00,0.00,21.5,19.8,00.0,30.5,23.0,08.6,0000.6,0009.04,0013.58,0008.65
2023-01-05 15:14:00,,0826.5,5.00,0.00,21.6,21.3,00.0,30.5,23.3,08.6,0001.3,0009.04,0013.54,0008.68
2023-01-05 15:15:00,,0826.5,5.00,0.00,21.8,22.4,00.0,30.5,23.7,08.5,0001.1,0009.10,0013.33,0008.77
2023-01-05 15:16:00,,0826.5,4.99,0.00,21.9,22.4,00.0,30.5,23.8,08.4,0000.6,0009.14,0013.28,0008.85
2023-01-05 15:17:00,,0826.5,4.98,0.00,21.9,21.9,00.0,30.6,23.8,08.4,0000.6,0009.17,0012.86,0008.87
2023-01-05 15:18:00,,0826.6,5.01,0.00,21.9,21.2,00.0,30.6,23.6,08.5,0000.2,0009.20,0012.89,0008.93
2023-01-05 15:19:00,,0826.7,5.01,0.00,21.8,20.7,00.0,30.6,23.5,08.6,-000.5,0009.33,0013.06,0009.06
2023-01-05 15:20:00,,0826.6,5.00,0.00,21.8,20.3,00.0,30.6,23.3,08.6,-001.6,0009.51,0013.22,0009.25
2023-01-05 15:21:00,,0826.7,5.00,0.00,21.7,20.1,00.0,30.6,23.2,08.7,-002.2,0009.73,0013.53,0009.46
2023-01-05 15:22:00,,0826.6,4.99,0.00,21.7,19.9,00.0,30.6,23.2,08.6,-002.1,0009.87,0013.64,0009.61
2023-01-05 15:23:00,,0826.7,4.99,0.00,21.6,19.7,00.0,30.6,23.1,08.6,-001.9,0009.97,0013.75,0009.70
2023-01-05 15:24:00,,0826.7,5.00,0.00,21.5,19.4,00.0,30.6,22.9,08.7,-001.9,0010.04,0013.71,0009.77
2023-01-05 15:25:00,,0826.7,5.01,0.00,21.5,19.5,00.0,30.5,22.9,08.7,-002.0,0010.11,0013.81,0009.80
2023-01-05 15:26:00,,0826.6,5.00,0.00,21.6,20.9,00.0,30.5,23.2,08.7,-001.7,0010.12,0013.88,0009.78
2023-01-05 15:27:00,,0826.5,4.97,0.00,21.7,22.2,00.0,30.5,23.6,08.5,-001.1,0010.06,0013.82,0009.72
2023-01-05 15:28:00,,0826.5,5.02,0.00,21.8,22.6,00.0,30.5,23.8,08.4,-001.0,0009.95,0013.69,0009.62
2023-01-05 15:29:00,,0826.5,5.03,0.00,21.9,22.1,00.0,30.6,23.8,08.4,0000.0,0009.82,0013.53,0009.49
2023-01-05 15:30:00,,0826.6,4.99,0.00,21.9,21.5,00.0,30.6,23.6,08.3,0000.6,0009.62,0013.32,0009.28
2023-01-05 15:31:00,,0826.6,5.00,0.00,21.8,21.0,00.0,30.6,23.5,08.3,0002.1,0009.36,0012.99,0009.04
2023-01-05 15:32:00,,0826.6,4.96,0.00,21.8,20.6,00.0,30.7,23.3,08.4,0003.0,0009.16,0013.65,0008.85
2023-01-05 15:33:00,,0826.7,5.05,0.00,21.8,20.3,00.0,30.7,23.3,08.4,0003.3,0009.08,0014.35,0008.77
2023-01-05 15:34:00,,0826.6,5.00,0.00,21.8,20.2,00.0,30.6,23.3,08.4,0003.3,0009.03,0014.25,0008.73
2023-01-05 15:35:00,,0826.6,4.99,0.00,21.7,20.1,00.0,30.6,23.3,08.4,0003.5,0008.94,0014.23,0008.64
2023-01-05 15:36:00,,0826.6,4.97,0.00,21.7,20.0,00.0,30.6,23.2,08.5,0004.0,0008.85,0014.23,0008.56
2023-01-05 15:37:00,,0826.6,5.04,0.00,21.7,19.8,00.0,30.6,23.1,08.5,0004.0,0008.83,0014.19,0008.56
2023-01-05 15:38:00,,0826.6,5.03,0.00,21.6,19.7,00.0,30.6,23.1,08.5,0003.5,0008.87,0014.52,0008.59
2023-01-05 15:39:00,,0826.6,4.97,0.00,21.7,20.8,00.0,30.5,23.3,08.5,0003.1,0008.89,0015.08,0008.60
2023-01-05 15:40:00,,0826.6,4.98,0.00,21.8,22.0,00.0,30.5,23.7,08.3,0002.6,0008.84,0015.06,0008.53
2023-01-05 15:41:00,,0826.6,5.00,0.00,21.9,22.3,00.0,30.6,23.8,08.2,0002.4,0008.79,0015.00,0008.47
2023-01-05 15:42:00,,0826.7,5.04,0.00,21.9,21.8,00.0,30.6,23.8,08.3,0002.2,0008.81,0015.06,0008.47
2023-01-05 15:43:00,,0826.7,4.99,0.00,21.9,21.3,00.0,30.7,23.6,08.3,0001.9,0008.79,0014.08,0008.42
2023-01-05 15:44:00,,0826.7,4.98,0.00,21.9,20.8,00.0,30.7,23.5,08.3,0001.1,0008.72,0013.30,0008.36
2023-01-05 15:45:00,,0826.9,5.03,0.00,21.8,20.3,00.0,30.7,23.3,08.2,0000.7,0008.66,0013.60,0008.30
2023-01-05 15:46:00,,0826.7,5.05,0.00,21.7,19.9,00.0,30.7,23.1,08.1,0001.1,0008.51,0013.32,0008.18
2023-01-05 15:47:00,,0826.6,4.97,0.00,21.7,19.7,00.0,30.6,23.1,08.2,0001.3,0008.33,0012.87,0008.00
2023-01-05 15:48:00,,0826.6,5.02,0.00,21.6,19.6,00.0,30.6,23.0,08.3,0000.2,0008.13,0012.66,0007.80
2023-01-05 15:49:00,,0826.7,5.00,0.00,21.6,19.6,00.0,30.6,23.1,08.4,0000.8,0008.01,0012.25,0007.69
2023-01-05 15:50:00,,0826.7,4.99,0.00,21.6,19.8,00.0,30.6,23.1,08.4,0001.0,0007.95,0011.69,0007.65
2023-01-05 15:51:00,,0826.7,5.01,0.00,21.6,21.1,00.0,30.5,23.4,08.4,0001.3,0007.97,0011.68,0007.68
2023-01-05 15:52:00,,0826.6,4.97,0.00,21.8,22.4,00.0,30.5,23.7,08.3,0000.9,0008.02,0011.75,0007.75
2023-01-05 15:53:00,,0826.7,5.01,0.00,21.9,22.8,00.0,30.6,24.0,08.3,0000.4,0008.07,0011.84,0007.80
2023-01-05 15:54:00,,0826.7,5.03,0.00,22.0,22.3,00.0,30.6,23.9,08.3,0000.0,0008.10,0011.90,0007.85
2023-01-05 15:55:00,,0826.6,5.04,0.00,22.0,21.9,00.0,30.7,23.8,08.3,-000.0,0008.17,0012.03,0007.89
2023-01-05 15:56:00,,0826.5,4.98,0.00,22.0,21.5,00.0,30.7,23.8,08.2,-000.3,0008.21,0011.79,0007.92
2023-01-05 15:57:00,,0826.5,4.98,0.00,22.0,21.1,00.0,30.7,23.7,08.2,-000.4,0008.31,0011.88,0008.01
2023-01-05 15:58:00,,0826.5,5.04,0.00,22.0,20.8,00.0,30.7,23.6,08.2,-000.6,0008.43,0012.04,0008.12
2023-01-05 15:59:00,,0826.5,4.98,0.00,21.9,20.6,00.0,30.7,23.5,08.2,-000.0,0008.57,0012.14,0008.24
